Temp
6 5 4 5 4 4 4 4 4 4 4 3 3 3 4 5 5 4 5 5 5 5 6 6 6 6 6 7 6 7 7 7 7 6 6 6 6 6 5 5 5 5 5 5
5 4 4 4 4 4 3 3 4 4 3 3 3 4 4 4 3 5 5 5 5 5 5 5 6 6 6 6 7 7 7 7 7 7 6 6 6 6 5 4 4 4 5 5
4 4 5 4 3 3 2 2 3 3 3 3 3 4 4 4 4 4 3 4 4 5 4 4 5 5 6 6 7 7 7 7 7 7 6 6 6 6 5 4 4 4 5 4
4 4 4 4 3 2 3 3 3 3 2 4 2 5 5 5 2 3 3 4 4 3 4 4 3 4 4 6 6 7 7 7 7 7 6 6 6 6 6 5 5 4 4 4
4 3 3 3 2 3 3 3 3 2 2 3 3 3 5 4 1 3 3 3 3 2 3 3 3 3 4 4 5 6 6 6 6 6 6 6 6 5 5 5 4 4 4 4
4 3 3 3 3 2 2 2 1 1 1 3 3 4 4 5 3 2 2 2 2 2 2 2 3 3 3 3 4 5 7 6 6 6 6 6 6 5 5 5 4 4 4 4
2 2 2 2 2 1 1 1 2 3 3 4 3 2 4 3 2 1 1 1 1 1 1 1 2 3 3 3 3 4 6 6 5 5 5 5 5 6 5 4 4 4 4 4
1 2 1 1 1 1 0 1 2 1 3 4 1 2 2 2 1 -1 -1 -1 -0 0 -0 0 1 2 3 3 2 3 4 5 5 4 5 5 5 6 4 4 4 3 3 3
1 1 -0 -0 0 -0 0 -1 -0 -1 -0 -0 1 1 0 -1 -1 -3 -4 -4 -3 -2 -0 -1 -1 0 1 3 2 2 1 3 2 4 4 5 4 5 4 3 2 1 2 3
-2 -2 -2 -2 -2 -2 -2 -2 -2 -2 -2 -2 1 1 1 -4 -5 -4 -3 -3 -2 -2 -2 -1 -1 -1 -0 1 1 0 -1 1 4 5 4 4 4 4 4 4 2 1 1 2
-3 -4 -3 -4 -4 -3 -4 -3 -4 -4 -4 -2 -2 1 -4 -3 -4 -4 -4 -3 -3 -3 -3 -2 -2 -2 -2 -0 1 1 -0 1 2 3 4 4 3 4 3 3 2 1 1 1
-5 -6 -5 -4 -5 -5 -5 -5 -5 -6 -6 -6 -7 -4 -4 -4 -5 -5 -4 -4 -3 -3 -3 -4 -4 -3 -2 -2 -1 -1 -1 1 1 2 2 3 2 3 2 2 1 1 1 1
-6 -6 -5 -6 -6 -6 -6 -7 -7 -7 -8 -7 -6 -3 -5 -6 -5 -5 -5 -4 -4 -4 -4 -4 -4 -5 -4 -3 -1 -1 -1 -1 1 1 1 1 1 1 2 1 1 1 -0 1
-8 -8 -7 -5 -7 -8 -8 -6 -7 -8 -7 -5 -6 -6 -6 -6 -6 -6 -5 -5 -5 -5 -5 -5 -5 -5 -6 -4 -2 -1 -1 -0 -0 2 1 1 1 1 1 1 0 0 0 1
-7 -8 -8 -8 -8 -8 -8 -8 -8 -7 -7 -8 -6 -7 -7 -7 -8 -8 -8 -6 -6 -5 -5 -5 -6 -5 -6 -5 -3 -2 -1 -1 -0 2 0 1 1 1 1 1 0 1 1 1
-8 -8 -8 -8 -8 -8 -8 -8 -8 -9 -8 -9 -8 -8 -9 -9 -9 -8 -8 -7 -6 -6 -6 -6 -6 -6 -6 -5 -4 -2 -1 -1 -1 1 1 0 1 1 1 1 0 0 0 1
-9 -9 -9 -7 -8 -9 -7 -7 -7 -8 -8 -8 -8 -7 -8 -8 -9 -9 -8 -8 -7 -7 -7 -7 -7 -7 -6 -5 -4 -3 -1 -1 -1 2 1 -0 1 1 1 1 1 0 1 1
-9 -9 -9 -7 -8 -7 -6 -6 -6 -7 -8 -8 -8 -9 -9 -8 -8 -8 -8 -9 -9 -7 -7 -7 -7 -7 -6 -6 -4 -3 -2 -1 -0 -1 -0 -0 0 0 1 1 1 1 0 1
-9 -10 -9 -8 -7 -6 -6 -6 -7 -7 -8 -8 -8 -9 -9 -8 -8 -8 -9 -9 -9 -8 -8 -7 -8 -7 -7 -6 -4 -3 -2 -2 -2 -0 0 -1 -1 0 1 1 1 1 0 0
-9 -9 -9 -10 -8 -6 -6 -6 -8 -8 -8 -8 -8 -9 -9 -8 -8 -8 -8 -8 -8 -9 -9 -8 -7 -7 -6 -5 -4 -3 -2 -2 -1 -1 -1 -1 -1 0 0 0 1 -0 -0 0
-11 -10 -10 -9 -8 -7 -6 -7 -7 -8 -7 -9 -8 -8 -9 -9 -9 -8 -8 -8 -8 -8 -8 -8 -8 -7 -6 -5 -4 -4 -2 -2 -1 -1 -1 -1 -0 -0 0 -1 -1 -0 -0 -0
-9 -9 -10 -10 -9 -8 -6 -7 -8 -8 -8 -8 -8 -8 -8 -8 -8 -8 -8 -8 -8 -8 -8 -8 -8 -7 -5 -4 -4 -2 -2 -2 -1 -1 -1 -2 -0 0 -0 -1 -1 -1 -1 -1
-8 -8 -7 -7 -7 -6 -6 -6 -7 -7 -8 -9 -8 -8 -8 -8 -8 -8 -8 -8 -8 -8 -8 -8 -8 -6 -6 -5 -3 -2 -2 -2 -1 -1 -1 -1 -0 0 -1 -1 -1 -1 -1 -1
-8 -7 -8 -7 -6 -6 -7 -6 -6 -7 -7 -8 -8 -8 -9 -8 -8 -8 -9 -8 -8 -8 -8 -8 -8 -7 -5 -5 -2 -2 -3 -2 -2 -1 -1 -1 -1 -1 -1 -1 -1 -1 -1 -1
-8 -8 -7 -7 -6 -7 -7 -7 -6 -6 -7 -8 -9 -9 -9 -8 -8 -8 -9 -9 -8 -8 -8 -9 -8 -7 -5 -4 -1 -1 -3 -2 -1 -2 -1 -1 -1 -1 -1 -1 -1 -2 -2 -2
-8 -8 -7 -7 -6 -6 -7 -7 -7 -7 -7 -8 -9 -9 -9 -8 -8 -8 -8 -8 -8 -8 -9 -10 -8 -7 -5 -3 -2 -2 -2 -2 -1 -2 -2 -1 -1 -1 -1 -1 -2 -2 -3 -3
Height
3126 3126 3124 3126 3123 3121 3119 3117 3114 3115 3114 3106 3105 3103 3101 3101 3101 3098 3096 3096 3097 3096 3094 3092 3091 3089 3089 3091 3093 3094 3095 3097 3097 3099 3102 3104 3106 3109 3110 3112 3112 3111 3111 3112
3122 3118 3120 3117 3116 3115 3114 3112 3109 3107 3105 3103 3099 3097 3096 3093 3091 3092 3093 3090 3089 3090 3089 3087 3085 3082 3080 3080 3081 3084 3086 3089 3090 3092 3095 3098 3102 3103 3105 3107 3108 3108 3108 3109
3117 3116 3112 3111 3110 3110 3110 3109 3106 3104 3101 3097 3095 3091 3089 3087 3086 3085 3084 3084 3083 3082 3081 3079 3078 3076 3074 3071 3071 3073 3076 3080 3083 3085 3087 3090 3093 3097 3099 3101 3103 3104 3105 3106
3112 3110 3110 3110 3108 3108 3104 3103 3100 3097 3098 3094 3090 3086 3087 3087 3080 3078 3079 3078 3078 3076 3076 3073 3071 3069 3067 3065 3063 3064 3065 3068 3072 3076 3079 3081 3087 3091 3095 3097 3100 3101 3101 3102
3111 3106 3106 3104 3103 3103 3102 3099 3097 3095 3091 3089 3085 3086 3077 3075 3075 3073 3074 3074 3071 3070 3071 3068 3066 3063 3062 3060 3057 3057 3056 3060 3064 3067 3071 3075 3079 3084 3088 3091 3094 3096 3097 3099
3103 3100 3099 3098 3097 3096 3094 3092 3091 3089 3088 3080 3076 3078 3070 3073 3068 3066 3068 3067 3066 3066 3065 3064 3061 3059 3058 3056 3054 3053 3052 3055 3057 3060 3065 3068 3072 3074 3079 3085 3088 3091 3093 3096
3097 3094 3091 3091 3089 3088 3087 3088 3084 3078 3074 3067 3068 3067 3065 3064 3062 3062 3062 3062 3061 3060 3058 3058 3058 3055 3053 3053 3051 3049 3047 3046 3050 3054 3058 3062 3063 3067 3072 3079 3083 3086 3090 3092
3091 3085 3085 3082 3083 3084 3081 3082 3079 3069 3060 3059 3064 3060 3058 3057 3056 3057 3055 3055 3055 3056 3054 3051 3051 3051 3048 3049 3047 3044 3044 3043 3046 3047 3052 3055 3060 3062 3065 3068 3073 3075 3083 3087
3086 3080 3077 3076 3076 3077 3077 3075 3073 3069 3067 3064 3057 3055 3056 3054 3054 3054 3051 3051 3050 3050 3048 3047 3046 3044 3045 3044 3044 3039 3041 3041 3043 3044 3047 3051 3053 3056 3058 3062 3045 3043 3073 3080
3080 3074 3071 3068 3069 3068 3069 3070 3068 3067 3065 3057 3049 3048 3049 3049 3051 3050 3048 3045 3043 3041 3042 3039 3040 3038 3039 3039 3037 3037 3039 3042 3039 3039 3042 3045 3047 3050 3053 3054 3060 3056 3068 3073
3075 3073 3068 3065 3062 3064 3063 3064 3064 3062 3062 3055 3050 3045 3046 3047 3048 3045 3041 3038 3035 3032 3030 3031 3031 3032 3032 3033 3034 3034 3037 3039 3037 3036 3039 3041 3043 3045 3048 3050 3053 3057 3063 3070
3070 3066 3062 3061 3057 3057 3055 3058 3058 3058 3056 3058 3057 3049 3046 3046 3043 3038 3035 3033 3030 3027 3023 3020 3019 3022 3025 3026 3028 3028 3028 3036 3037 3033 3034 3036 3038 3041 3043 3047 3050 3054 3056 3064
3062 3061 3058 3055 3054 3052 3051 3053 3053 3054 3054 3052 3053 3044 3042 3042 3038 3037 3031 3027 3023 3019 3018 3014 3011 3011 3015 3017 3020 3024 3025 3028 3031 3034 3032 3033 3035 3039 3041 3044 3046 3048 3052 3057
3056 3055 3052 3050 3048 3050 3048 3049 3049 3051 3050 3045 3043 3040 3039 3036 3033 3030 3025 3021 3016 3011 3007 3004 3003 3002 3003 3009 3013 3016 3020 3023 3026 3029 3031 3031 3033 3036 3040 3041 3041 3042 3047 3053
3050 3047 3046 3045 3045 3044 3045 3045 3044 3044 3044 3043 3042 3039 3036 3034 3030 3025 3019 3013 3009 3004 3001 2998 2994 2994 2996 3001 3005 3009 3014 3018 3022 3024 3028 3028 3029 3032 3034 3035 3032 3039 3046 3049
3044 3043 3043 3043 3041 3040 3040 3040 3039 3038 3037 3036 3037 3036 3034 3030 3027 3022 3016 3009 3004 2999 2995 2990 2987 2988 2991 2995 2999 3002 3007 3012 3016 3019 3023 3025 3024 3026 3030 3033 3034 3037 3043 3047
3040 3040 3041 3040 3038 3038 3037 3033 3033 3032 3031 3033 3034 3034 3029 3026 3024 3019 3012 3006 3000 2996 2991 2987 2985 2986 2988 2990 2993 2995 3000 3005 3009 3015 3018 3021 3022 3024 3027 3029 3032 3035 3040 3044
3038 3039 3040 3039 3037 3035 3030 3030 3030 3029 3029 3029 3028 3027 3025 3023 3020 3016 3010 3005 3000 2996 2991 2988 2987 2986 2987 2987 2987 2990 2994 2999 3003 3009 3015 3017 3019 3021 3025 3027 3031 3035 3038 3041
3034 3037 3037 3037 3033 3031 3028 3028 3027 3025 3026 3024 3024 3023 3021 3019 3017 3016 3010 3005 3000 2994 2990 2989 2987 2985 2982 2981 2982 2984 2988 2993 3000 3005 3010 3013 3017 3021 3023 3027 3030 3033 3036 3040
3029 3032 3035 3033 3033 3027 3026 3025 3023 3023 3022 3020 3021 3020 3017 3016 3015 3013 3008 3004 3000 2994 2988 2987 2984 2980 2979 2977 2979 2981 2984 2990 2996 3001 3002 3012 3015 3019 3022 3025 3028 3032 3037 3041
3023 3026 3028 3031 3030 3025 3023 3022 3022 3024 3023 3018 3018 3017 3015 3014 3012 3007 3004 3001 2998 2993 2987 2983 2980 2976 2973 2973 2973 2975 2980 2986 2992 2999 3001 3010 3013 3016 3020 3025 3029 3033 3038 3041
3017 3021 3023 3027 3028 3024 3020 3020 3021 3019 3016 3016 3015 3014 3012 3010 3007 3004 3001 2997 2994 2989 2985 2980 2974 2969 2967 2967 2967 2970 2976 2980 2987 2995 3001 3006 3010 3015 3019 3024 3028 3033 3038 3042
3014 3014 3016 3020 3018 3017 3017 3018 3016 3014 3013 3012 3013 3011 3009 3006 3004 3001 2997 2994 2991 2986 2980 2974 2967 2963 2960 2959 2960 2965 2971 2975 2981 2989 2996 3004 3008 3014 3018 3024 3029 3033 3038 3041
3008 3009 3012 3015 3015 3014 3015 3015 3013 3011 3010 3009 3008 3007 3005 3003 3000 2998 2995 2990 2987 2983 2976 2968 2961 2956 2952 2950 2952 2957 2963 2970 2979 2986 2993 3001 3008 3013 3018 3024 3028 3033 3038 3044
3004 3006 3008 3009 3011 3011 3011 3011 3011 3009 3007 3006 3005 3003 3001 2999 2997 2995 2992 2987 2984 2980 2974 2965 2955 2949 2944 2943 2946 2952 2960 2968 2977 2985 2992 3001 3007 3013 3018 3024 3028 3034 3040 3046
2997 3002 3005 3007 3008 3008 3008 3008 3007 3006 3005 3004 3003 3001 2999 2997 2994 2992 2989 2985 2981 2977 2972 2963 2953 2943 2941 2942 2946 2953 2959 2968 2975 2984 2992 2999 3006 3012 3018 3023 3028 3035 3042 3047
Wind_Speed
24 24 19 16 17 22 25 24 28 26 23 26 23 24 23 21 18 20 23 19 19 21 22 25 28 30 33 36 37 33 32 25 30 34 36 36 32 29 26 21 19 16 18 20
24 24 20 24 22 21 20 22 26 24 18 18 23 25 24 17 13 12 16 16 15 17 21 24 27 30 30 28 31 38 37 33 28 30 35 38 33 28 24 25 21 17 17 19
18 17 24 22 22 22 19 22 24 24 20 23 22 25 8 10 15 17 14 11 18 19 20 21 24 25 26 26 27 29 37 35 33 31 34 39 37 31 27 24 26 18 18 18
16 14 15 16 18 16 21 18 18 20 16 20 10 14 20 21 17 16 17 19 25 20 13 10 12 16 21 24 28 29 33 40 39 36 34 38 37 33 28 25 24 18 18 18
14 22 23 22 19 20 19 24 25 21 21 22 29 15 26 12 15 20 21 27 24 17 13 11 8 9 10 16 21 25 22 31 37 34 35 35 37 34 32 25 26 22 22 20
25 25 24 25 25 24 26 27 22 20 21 21 34 29 27 24 21 22 18 18 16 15 15 15 13 13 10 12 11 20 20 22 24 34 30 28 36 41 35 28 28 25 23 21
20 23 29 28 31 30 30 20 16 14 12 16 16 13 23 22 21 18 18 16 18 19 21 21 22 18 19 12 7 10 19 15 22 25 30 30 21 36 35 32 31 27 24 21
24 29 23 23 24 21 17 19 21 12 13 15 6 9 7 20 27 17 13 13 17 22 24 24 25 23 18 19 8 2 11 22 22 34 38 38 31 28 37 38 37 37 25 21
20 25 22 24 25 22 14 19 22 18 18 10 19 17 19 20 16 14 14 17 20 22 25 26 26 27 24 17 18 3 8 8 17 23 31 39 39 31 35 42 36 37 27 24
21 24 19 24 24 25 25 19 9 8 6 6 11 18 14 6 11 18 19 23 26 28 27 31 31 28 26 20 20 14 19 13 14 17 20 24 33 34 37 40 42 23 23 23
24 19 19 19 16 15 13 15 11 9 6 4 4 6 6 4 11 21 27 33 38 41 42 40 36 27 21 21 20 26 27 16 8 9 14 18 24 29 32 33 37 36 22 24
17 13 20 19 20 17 16 14 14 9 5 7 3 12 16 17 16 23 30 40 43 41 40 41 38 32 27 22 20 19 18 20 14 7 10 15 17 21 25 19 23 24 25 21
9 9 10 9 11 21 21 21 26 20 13 16 10 7 9 17 28 29 28 29 30 31 30 33 35 34 26 24 23 18 21 19 17 11 10 12 15 16 18 15 18 28 28 18
22 21 19 17 7 5 7 10 11 13 12 13 20 23 22 22 25 25 24 24 29 31 33 35 33 30 22 22 24 22 21 25 20 17 17 12 14 16 16 21 20 24 14 15
26 20 20 21 19 14 16 13 17 23 20 14 16 17 15 18 21 25 29 31 30 32 34 34 31 26 18 18 24 22 25 24 23 20 18 14 15 19 15 10 22 21 11 13
22 11 9 13 14 19 19 17 17 18 19 23 20 19 11 15 19 23 27 28 28 34 33 26 21 18 17 20 21 26 26 30 24 18 20 14 13 18 18 10 11 15 18 15
19 10 6 10 10 8 12 14 15 16 16 13 11 10 13 15 17 22 25 24 22 29 22 16 11 14 18 19 18 20 25 28 27 28 24 14 13 15 20 17 18 17 18 16
9 12 8 6 4 5 4 3 4 9 12 12 12 12 13 13 15 19 20 21 22 17 10 6 5 8 11 14 17 18 22 29 28 24 24 17 21 21 18 16 17 17 15 14
15 13 9 5 9 8 8 4 5 9 9 8 8 9 10 11 15 10 19 16 24 22 4 3 6 10 15 18 17 23 22 25 21 25 28 16 18 22 18 18 17 15 15 15
16 19 13 7 4 3 4 6 6 7 13 9 4 7 10 13 13 15 21 16 21 23 26 19 13 12 19 22 18 21 24 22 21 22 27 16 17 20 17 17 17 18 18 14
21 20 18 13 7 8 8 5 6 4 4 10 6 9 10 12 14 18 18 20 22 24 23 21 28 26 16 25 21 21 25 22 27 23 20 18 18 19 18 19 20 22 18 18
25 17 13 12 6 8 4 4 6 9 10 10 8 13 12 11 12 13 15 18 21 25 25 24 34 16 13 21 23 23 27 27 34 31 29 21 20 21 21 22 24 25 22 18
18 23 18 12 8 7 1 3 9 9 7 12 14 14 15 14 12 12 14 19 21 25 29 33 28 13 10 22 24 24 31 31 35 33 31 20 23 21 24 27 24 27 21 27
25 17 25 14 12 11 6 2 5 7 6 9 12 13 15 17 14 12 15 20 22 25 31 38 33 19 3 19 21 21 33 35 38 30 35 26 26 26 28 27 26 24 27 24
23 20 22 24 15 11 8 2 2 5 7 10 11 14 15 17 15 13 15 19 21 25 30 37 43 24 2 13 18 31 34 39 39 34 29 32 29 31 30 26 28 28 26 22
32 25 21 13 11 9 6 3 2 6 8 11 13 12 13 15 15 12 15 19 21 22 27 33 39 29 10 14 24 31 38 43 38 36 35 33 36 34 33 30 35 32 24 25
Wind_Direction
287 283 272 271 264 268 271 273 278 282 286 289 288 288 291 302 280 269 273 278 278 276 274 271 270 268 264 257 252 251 247 245 240 236 234 237 240 244 242 242 251 258 247 238
284 278 278 280 281 278 273 272 277 290 295 288 292 289 296 283 250 272 267 269 275 282 278 281 277 274 270 263 255 246 244 242 241 240 238 241 244 245 242 235 242 254 243 235
270 277 285 281 276 280 271 269 278 278 285 291 292 295 258 237 276 273 234 269 299 283 276 280 280 281 276 263 255 247 239 238 243 244 234 236 238 235 236 235 238 249 241 229
287 282 288 285 280 274 273 267 280 277 280 279 267 287 269 279 265 232 232 276 283 265 264 290 287 289 278 267 262 255 243 231 235 240 237 234 239 241 244 244 237 244 232 221
280 287 289 283 278 283 274 281 281 273 266 274 267 259 286 258 211 235 258 272 264 262 261 279 300 280 310 292 273 264 247 234 232 235 232 233 232 233 238 236 229 234 224 221
285 283 281 282 278 280 275 274 272 268 266 257 267 260 263 264 243 258 256 253 256 272 281 293 296 289 284 317 291 261 233 229 239 232 222 228 233 230 229 223 226 231 221 216
283 280 280 276 273 276 267 260 265 250 226 255 273 272 252 255 261 252 251 254 266 285 300 309 309 297 259 275 294 259 219 222 250 212 219 226 239 224 217 219 222 225 220 217
281 286 274 271 268 256 262 244 242 262 261 277 274 250 246 247 256 257 252 262 273 284 299 307 311 305 284 254 276 6 247 215 215 208 220 217 227 228 214 216 219 207 214 218
289 273 281 278 275 262 262 250 254 264 260 273 252 257 270 267 247 255 273 281 284 287 288 297 303 302 302 278 247 77 350 239 229 219 220 223 230 227 224 229 242 182 206 217
278 281 270 270 266 259 243 249 252 233 248 241 253 265 267 220 246 266 274 278 281 284 286 292 292 295 297 297 245 255 313 309 261 237 234 230 232 234 229 237 239 199 207 212
272 263 271 271 260 247 249 240 239 247 229 271 284 268 148 305 302 303 298 298 300 301 299 294 289 286 283 282 277 239 271 291 259 210 224 230 230 234 235 233 227 237 209 208
271 266 266 262 251 243 234 240 241 226 184 227 279 266 285 289 305 293 294 295 296 298 300 301 298 292 267 265 267 292 217 269 278 194 191 206 214 219 221 220 239 256 222 208
264 244 271 267 255 253 251 256 266 258 242 238 242 243 281 311 296 303 307 304 305 308 309 305 301 297 285 251 247 247 233 248 248 265 203 205 216 229 229 240 305 243 196 211
243 237 235 260 270 256 264 261 241 219 223 248 239 275 298 314 320 319 318 318 318 317 315 309 297 294 292 244 229 234 238 237 245 262 241 222 228 232 247 267 257 196 188 214
256 243 253 259 267 261 260 251 253 242 250 252 274 286 310 315 326 330 325 313 315 309 309 301 287 277 275 218 230 230 222 231 238 237 245 245 252 242 235 266 207 197 200 220
246 244 243 262 257 265 262 258 241 246 250 258 269 274 294 310 320 328 330 322 317 320 316 301 283 269 222 211 221 225 220 213 221 226 238 238 265 238 216 256 233 215 218 216
230 225 229 262 267 267 270 254 249 251 248 240 253 285 289 313 333 340 333 332 322 321 322 316 276 245 224 218 219 208 218 217 222 221 240 241 210 197 214 219 218 208 201 200
232 221 231 270 254 239 229 323 305 253 239 263 272 285 299 311 336 345 350 352 358 329 330 339 306 260 234 236 232 204 199 213 219 213 212 206 213 208 202 192 192 193 195 199
224 224 232 225 238 282 271 260 309 257 268 268 251 295 293 307 326 334 338 352 2 4 327 336 306 274 252 239 230 215 202 209 207 198 201 192 193 194 191 189 187 186 177 177
224 223 217 225 248 255 183 270 317 294 288 226 322 331 325 328 321 319 342 351 2 356 352 357 333 327 261 248 243 213 207 195 188 198 189 198 195 185 185 188 178 165 166 165
205 219 217 223 246 273 241 300 320 260 286 202 302 323 326 327 320 321 329 340 344 353 351 349 338 330 276 246 242 209 199 183 180 183 184 199 190 184 181 178 164 167 164 157
203 206 198 208 222 257 205 310 256 274 267 232 299 321 325 322 318 315 322 328 338 347 351 338 329 326 268 251 237 213 195 188 182 177 186 193 186 185 181 175 166 170 167 163
212 215 218 213 219 191 256 340 311 310 251 254 280 307 320 319 317 310 316 322 333 341 342 332 338 343 271 257 239 219 198 191 186 187 187 181 175 183 175 174 173 175 180 170
222 233 221 226 237 257 269 307 325 321 277 258 280 302 314 319 318 303 304 310 325 335 336 333 348 344 239 249 239 216 191 182 176 185 183 182 175 176 172 170 175 174 177 165
227 234 231 233 248 260 255 195 346 294 275 267 282 300 319 321 321 307 311 310 322 330 336 337 345 4 102 224 195 190 180 177 177 175 182 176 178 173 172 176 166 144 144 158
223 240 234 238 246 265 254 254 304 278 290 293 298 312 317 320 320 311 316 321 322 335 338 336 342 18 42 165 176 189 180 186 181 178 170 174 169 174 172 170 147 140 144 146